Year,Month,Day,Hour,Minute,Value (Times are PST for insolation in W/m^2)
2010,11,02,00,00,0.00
2010,11,02,00,01,0.00
2010,11,02,00,02,0.00
2010,11,02,00,03,0.00
2010,11,02,00,04,0.00
2010,11,02,00,05,0.00
2010,11,02,00,06,0.00
2010,11,02,00,07,0.00
2010,11,02,00,08,0.00
2010,11,02,00,09,0.00
2010,11,02,00,10,0.00
2010,11,02,00,11,0.00
2010,11,02,00,12,0.00
2010,11,02,00,13,0.00
2010,11,02,00,14,0.00
2010,11,02,00,15,0.00
2010,11,02,00,16,0.00
2010,11,02,00,17,0.00
2010,11,02,00,18,0.00
2010,11,02,00,19,0.00
2010,11,02,00,20,0.00
2010,11,02,00,21,0.00
2010,11,02,00,22,0.00
2010,11,02,00,23,0.00
2010,11,02,00,24,0.00
2010,11,02,00,25,0.00
2010,11,02,00,26,0.00
2010,11,02,00,27,0.00
2010,11,02,00,28,0.00
2010,11,02,00,29,0.00
2010,11,02,00,30,0.00
2010,11,02,00,31,0.00
2010,11,02,00,32,0.00
2010,11,02,00,33,0.00
2010,11,02,00,34,0.00
2010,11,02,00,35,0.00
2010,11,02,00,36,0.00
2010,11,02,00,37,0.00
2010,11,02,00,38,0.00
2010,11,02,00,39,0.00
2010,11,02,00,40,0.00
2010,11,02,00,41,0.00
2010,11,02,00,42,0.00
2010,11,02,00,43,0.00
2010,11,02,00,44,0.00
2010,11,02,00,45,0.00
2010,11,02,00,46,0.00
2010,11,02,00,47,0.00
2010,11,02,00,48,0.00
2010,11,02,00,49,0.00
2010,11,02,00,50,0.00
2010,11,02,00,51,0.00
2010,11,02,00,52,0.00
2010,11,02,00,53,0.00
2010,11,02,00,54,0.00
2010,11,02,00,55,0.00
2010,11,02,00,56,0.00
2010,11,02,00,57,0.00
2010,11,02,00,58,0.00
2010,11,02,00,59,0.00
2010,11,02,01,00,0.00
2010,11,02,01,01,0.00
2010,11,02,01,02,0.00
2010,11,02,01,03,0.00
2010,11,02,01,04,0.00
2010,11,02,01,05,0.00
2010,11,02,01,06,0.00
2010,11,02,01,07,0.00
2010,11,02,01,08,0.00
2010,11,02,01,09,0.00
2010,11,02,01,10,0.00
2010,11,02,01,11,0.00
2010,11,02,01,12,0.00
2010,11,02,01,13,0.00
2010,11,02,01,14,0.00
2010,11,02,01,15,0.00
2010,11,02,01,16,0.00
2010,11,02,01,17,0.00
2010,11,02,01,18,0.00
2010,11,02,01,19,0.00
2010,11,02,01,20,0.00
2010,11,02,01,21,0.00
2010,11,02,01,22,0.00
2010,11,02,01,23,0.00
2010,11,02,01,24,0.00
2010,11,02,01,25,0.00
2010,11,02,01,26,0.00
2010,11,02,01,27,0.00
2010,11,02,01,28,0.00
2010,11,02,01,29,0.00
2010,11,02,01,30,0.00
2010,11,02,01,31,0.00
2010,11,02,01,32,0.00
2010,11,02,01,33,0.00
2010,11,02,01,34,0.00
2010,11,02,01,35,0.00
2010,11,02,01,36,0.00
2010,11,02,01,37,0.00
2010,11,02,01,38,0.00
2010,11,02,01,39,0.00
2010,11,02,01,40,0.00
2010,11,02,01,41,0.00
2010,11,02,01,42,0.00
2010,11,02,01,43,0.00
2010,11,02,01,44,0.00
2010,11,02,01,45,0.00
2010,11,02,01,46,0.00
2010,11,02,01,47,0.00
2010,11,02,01,48,0.00
2010,11,02,01,49,0.00
2010,11,02,01,50,0.00
2010,11,02,01,51,0.00
2010,11,02,01,52,0.00
2010,11,02,01,53,0.00
2010,11,02,01,54,0.00
2010,11,02,01,55,0.00
2010,11,02,01,56,0.00
2010,11,02,01,57,0.00
2010,11,02,01,58,0.00
2010,11,02,01,59,0.00
2010,11,02,02,00,0.00
2010,11,02,02,01,0.00
2010,11,02,02,02,0.00
2010,11,02,02,03,0.00
2010,11,02,02,04,0.00
2010,11,02,02,05,0.00
2010,11,02,02,06,0.00
2010,11,02,02,07,0.00
2010,11,02,02,08,0.00
2010,11,02,02,09,0.00
2010,11,02,02,10,0.00
2010,11,02,02,11,0.00
2010,11,02,02,12,0.00
2010,11,02,02,13,0.00
2010,11,02,02,14,0.00
2010,11,02,02,15,0.00
2010,11,02,02,16,0.00
2010,11,02,02,17,0.00
2010,11,02,02,18,0.00
2010,11,02,02,19,0.00
2010,11,02,02,20,0.00
2010,11,02,02,21,0.00
2010,11,02,02,22,0.00
2010,11,02,02,23,0.00
2010,11,02,02,24,0.00
2010,11,02,02,25,0.00
2010,11,02,02,26,0.00
2010,11,02,02,27,0.00
2010,11,02,02,28,0.00
2010,11,02,02,29,0.00
2010,11,02,02,30,0.00
2010,11,02,02,31,0.00
2010,11,02,02,32,0.00
2010,11,02,02,33,0.00
2010,11,02,02,34,0.00
2010,11,02,02,35,0.00
2010,11,02,02,36,0.00
2010,11,02,02,37,0.00
2010,11,02,02,38,0.00
2010,11,02,02,39,0.00
2010,11,02,02,40,0.00
2010,11,02,02,41,0.00
2010,11,02,02,42,0.00
2010,11,02,02,43,0.00
2010,11,02,02,44,0.00
2010,11,02,02,45,0.00
2010,11,02,02,46,0.00
2010,11,02,02,47,0.00
2010,11,02,02,48,0.00
2010,11,02,02,49,0.00
2010,11,02,02,50,0.00
2010,11,02,02,51,0.00
2010,11,02,02,52,0.00
2010,11,02,02,53,0.00
2010,11,02,02,54,0.00
2010,11,02,02,55,0.00
2010,11,02,02,56,0.00
2010,11,02,02,57,0.00
2010,11,02,02,58,0.00
2010,11,02,02,59,0.00
2010,11,02,03,00,0.00
2010,11,02,03,01,0.00
2010,11,02,03,02,0.00
2010,11,02,03,03,0.00
2010,11,02,03,04,0.00
2010,11,02,03,05,0.00
2010,11,02,03,06,0.00
2010,11,02,03,07,0.00
2010,11,02,03,08,0.00
2010,11,02,03,09,0.00
2010,11,02,03,10,0.00
2010,11,02,03,11,0.00
2010,11,02,03,12,0.00
2010,11,02,03,13,0.00
2010,11,02,03,14,0.00
2010,11,02,03,15,0.00
2010,11,02,03,16,0.00
2010,11,02,03,17,0.00
2010,11,02,03,18,0.00
2010,11,02,03,19,0.00
2010,11,02,03,20,0.00
2010,11,02,03,21,0.00
2010,11,02,03,22,0.00
2010,11,02,03,23,0.00
2010,11,02,03,24,0.00
2010,11,02,03,25,0.00
2010,11,02,03,26,0.00
2010,11,02,03,27,0.00
2010,11,02,03,28,0.00
2010,11,02,03,29,0.00
2010,11,02,03,30,0.00
2010,11,02,03,31,0.00
2010,11,02,03,32,0.00
2010,11,02,03,33,0.00
2010,11,02,03,34,0.00
2010,11,02,03,35,0.00
2010,11,02,03,36,0.00
2010,11,02,03,37,0.00
2010,11,02,03,38,0.00
2010,11,02,03,39,0.00
2010,11,02,03,40,0.00
2010,11,02,03,41,0.00
2010,11,02,03,42,0.00
2010,11,02,03,43,0.00
2010,11,02,03,44,0.00
2010,11,02,03,45,0.00
2010,11,02,03,46,0.00
2010,11,02,03,47,0.00
2010,11,02,03,48,0.00
2010,11,02,03,49,0.00
2010,11,02,03,50,0.00
2010,11,02,03,51,0.00
2010,11,02,03,52,0.00
2010,11,02,03,53,0.00
2010,11,02,03,54,0.00
2010,11,02,03,55,0.00
2010,11,02,03,56,0.00
2010,11,02,03,57,0.00
2010,11,02,03,58,0.00
2010,11,02,03,59,0.00
2010,11,02,04,00,0.00
2010,11,02,04,01,0.00
2010,11,02,04,02,0.00
2010,11,02,04,03,0.00
2010,11,02,04,04,0.00
2010,11,02,04,05,0.00
2010,11,02,04,06,0.00
2010,11,02,04,07,0.00
2010,11,02,04,08,0.00
2010,11,02,04,09,0.00
2010,11,02,04,10,0.00
2010,11,02,04,11,0.00
2010,11,02,04,12,0.00
2010,11,02,04,13,0.00
2010,11,02,04,14,0.00
2010,11,02,04,15,0.00
2010,11,02,04,16,0.00
2010,11,02,04,17,0.00
2010,11,02,04,18,0.00
2010,11,02,04,19,0.00
2010,11,02,04,20,0.00
2010,11,02,04,21,0.00
2010,11,02,04,22,0.00
2010,11,02,04,23,0.00
2010,11,02,04,24,0.00
2010,11,02,04,25,0.00
2010,11,02,04,26,0.00
2010,11,02,04,27,0.00
2010,11,02,04,28,0.00
2010,11,02,04,29,0.00
2010,11,02,04,30,0.00
2010,11,02,04,31,0.00
2010,11,02,04,32,0.00
2010,11,02,04,33,0.00
2010,11,02,04,34,0.00
2010,11,02,04,35,0.00
2010,11,02,04,36,0.00
2010,11,02,04,37,0.00
2010,11,02,04,38,0.00
2010,11,02,04,39,0.00
2010,11,02,04,40,0.00
2010,11,02,04,41,0.00
2010,11,02,04,42,0.00
2010,11,02,04,43,0.00
2010,11,02,04,44,0.00
2010,11,02,04,45,0.00
2010,11,02,04,46,0.00
2010,11,02,04,47,0.00
2010,11,02,04,48,0.00
2010,11,02,04,49,0.00
2010,11,02,04,50,0.00
2010,11,02,04,51,0.00
2010,11,02,04,52,0.00
2010,11,02,04,53,0.00
2010,11,02,04,54,0.00
2010,11,02,04,55,0.00
2010,11,02,04,56,0.00
2010,11,02,04,57,0.00
2010,11,02,04,58,0.00
2010,11,02,04,59,0.00
2010,11,02,05,00,0.00
2010,11,02,05,01,0.00
2010,11,02,05,02,0.00
2010,11,02,05,03,0.00
2010,11,02,05,04,0.00
2010,11,02,05,05,0.00
2010,11,02,05,06,0.00
2010,11,02,05,07,0.00
2010,11,02,05,08,0.00
2010,11,02,05,09,0.00
2010,11,02,05,10,0.00
2010,11,02,05,11,0.00
2010,11,02,05,12,0.00
2010,11,02,05,13,0.00
2010,11,02,05,14,0.00
2010,11,02,05,15,0.00
2010,11,02,05,16,0.00
2010,11,02,05,17,0.00
2010,11,02,05,18,0.00
2010,11,02,05,19,0.00
2010,11,02,05,20,0.00
2010,11,02,05,21,0.00
2010,11,02,05,22,0.00
2010,11,02,05,23,0.00
2010,11,02,05,24,0.00
2010,11,02,05,25,0.00
2010,11,02,05,26,0.00
2010,11,02,05,27,0.00
2010,11,02,05,28,0.00
2010,11,02,05,29,0.00
2010,11,02,05,30,0.00
2010,11,02,05,31,0.00
2010,11,02,05,32,0.00
2010,11,02,05,33,0.00
2010,11,02,05,34,0.00
2010,11,02,05,35,0.00
2010,11,02,05,36,0.00
2010,11,02,05,37,0.00
2010,11,02,05,38,0.00
2010,11,02,05,39,0.00
2010,11,02,05,40,0.00
2010,11,02,05,41,0.00
2010,11,02,05,42,0.00
2010,11,02,05,43,0.00
2010,11,02,05,44,0.00
2010,11,02,05,45,0.00
2010,11,02,05,46,0.00
2010,11,02,05,47,0.00
2010,11,02,05,48,0.00
2010,11,02,05,49,0.00
2010,11,02,05,50,0.00
2010,11,02,05,51,0.00
2010,11,02,05,52,0.00
2010,11,02,05,53,0.00
2010,11,02,05,54,0.00
2010,11,02,05,55,0.00
2010,11,02,05,56,0.00
2010,11,02,05,57,0.00
2010,11,02,05,58,0.00
2010,11,02,05,59,0.00
2010,11,02,06,00,0.00
2010,11,02,06,01,0.00
2010,11,02,06,02,0.00
2010,11,02,06,03,0.00
2010,11,02,06,04,0.00
2010,11,02,06,05,0.00
2010,11,02,06,06,0.00
2010,11,02,06,07,0.00
2010,11,02,06,08,0.00
2010,11,02,06,09,0.00
2010,11,02,06,10,0.00
2010,11,02,06,11,0.00
2010,11,02,06,12,0.00
2010,11,02,06,13,0.00
2010,11,02,06,14,0.00
2010,11,02,06,15,0.00
2010,11,02,06,16,0.00
2010,11,02,06,17,0.00
2010,11,02,06,18,0.00
2010,11,02,06,19,0.00
2010,11,02,06,20,0.00
2010,11,02,06,21,0.00
2010,11,02,06,22,0.00
2010,11,02,06,23,0.00
2010,11,02,06,24,0.00
2010,11,02,06,25,0.00
2010,11,02,06,26,0.00
2010,11,02,06,27,0.00
2010,11,02,06,28,0.00
2010,11,02,06,29,0.00
2010,11,02,06,30,0.00
2010,11,02,06,31,0.00
2010,11,02,06,32,0.00
2010,11,02,06,33,0.00
2010,11,02,06,34,0.00
2010,11,02,06,35,0.00
2010,11,02,06,36,0.00
2010,11,02,06,37,0.00
2010,11,02,06,38,0.00
2010,11,02,06,39,0.00
2010,11,02,06,40,0.00
2010,11,02,06,41,0.00
2010,11,02,06,42,0.00
2010,11,02,06,43,0.00
2010,11,02,06,44,0.00
2010,11,02,06,45,0.00
2010,11,02,06,46,0.00
2010,11,02,06,47,0.00
2010,11,02,06,48,0.00
2010,11,02,06,49,0.00
2010,11,02,06,50,0.00
2010,11,02,06,51,0.00
2010,11,02,06,52,0.00
2010,11,02,06,53,0.00
2010,11,02,06,54,0.00
2010,11,02,06,55,0.00
2010,11,02,06,56,0.00
2010,11,02,06,57,0.00
2010,11,02,06,58,0.00
2010,11,02,06,59,0.00
2010,11,02,07,00,0.00
2010,11,02,07,01,0.00
2010,11,02,07,02,0.00
2010,11,02,07,03,0.00
2010,11,02,07,04,0.00
2010,11,02,07,05,0.00
2010,11,02,07,06,0.00
2010,11,02,07,07,0.00
2010,11,02,07,08,0.00
2010,11,02,07,09,0.00
2010,11,02,07,10,0.00
2010,11,02,07,11,0.00
2010,11,02,07,12,0.00
2010,11,02,07,13,0.00
2010,11,02,07,14,0.00
2010,11,02,07,15,0.00
2010,11,02,07,16,0.00
2010,11,02,07,17,0.00
2010,11,02,07,18,0.00
2010,11,02,07,19,0.00
2010,11,02,07,20,0.00
2010,11,02,07,21,0.00
2010,11,02,07,22,0.00
2010,11,02,07,23,0.00
2010,11,02,07,24,0.00
2010,11,02,07,25,0.00
2010,11,02,07,26,0.00
2010,11,02,07,27,0.00
2010,11,02,07,28,0.00
2010,11,02,07,29,0.00
2010,11,02,07,30,0.00
2010,11,02,07,31,0.00
2010,11,02,07,32,0.00
2010,11,02,07,33,0.00
2010,11,02,07,34,0.00
2010,11,02,07,35,0.00
2010,11,02,07,36,0.00
2010,11,02,07,37,0.00
2010,11,02,07,38,0.00
2010,11,02,07,39,0.00
2010,11,02,07,40,0.00
2010,11,02,07,41,0.00
2010,11,02,07,42,0.00
2010,11,02,07,43,0.00
2010,11,02,07,44,0.00
2010,11,02,07,45,0.00
2010,11,02,07,46,0.00
2010,11,02,07,47,0.00
2010,11,02,07,48,0.00
2010,11,02,07,49,0.00
2010,11,02,07,50,0.00
2010,11,02,07,51,0.00
2010,11,02,07,52,0.00
2010,11,02,07,53,0.00
2010,11,02,07,54,0.00
2010,11,02,07,55,0.00
2010,11,02,07,56,0.00
2010,11,02,07,57,0.00
2010,11,02,07,58,0.00
2010,11,02,07,59,0.00
2010,11,02,08,00,0.00
2010,11,02,08,01,0.00
2010,11,02,08,02,0.00
2010,11,02,08,03,0.00
2010,11,02,08,04,0.00
2010,11,02,08,05,0.00
2010,11,02,08,06,0.00
2010,11,02,08,07,0.00
2010,11,02,08,08,0.00
2010,11,02,08,09,0.00
2010,11,02,08,10,2.40
2010,11,02,08,11,5.00
2010,11,02,08,12,5.00
2010,11,02,08,13,6.80
2010,11,02,08,14,7.00
2010,11,02,08,15,7.70
2010,11,02,08,16,9.00
2010,11,02,08,17,10.40
2010,11,02,08,18,11.00
2010,11,02,08,19,11.10
2010,11,02,08,20,12.00
2010,11,02,08,21,12.70
2010,11,02,08,22,14.00
2010,11,02,08,23,14.00
2010,11,02,08,24,15.60
2010,11,02,08,25,16.00
2010,11,02,08,26,16.00
2010,11,02,08,27,16.00
2010,11,02,08,28,17.10
2010,11,02,08,29,18.70
2010,11,02,08,30,19.00
2010,11,02,08,31,21.00
2010,11,02,08,32,21.00
2010,11,02,08,33,21.00
2010,11,02,08,34,22.20
2010,11,02,08,35,23.00
2010,11,02,08,36,23.00
2010,11,02,08,37,23.00
2010,11,02,08,38,23.60
2010,11,02,08,39,25.00
2010,11,02,08,40,25.00
2010,11,02,08,41,25.00
2010,11,02,08,42,25.00
2010,11,02,08,43,25.20
2010,11,02,08,44,26.00
2010,11,02,08,45,26.00
2010,11,02,08,46,26.00
2010,11,02,08,47,26.00
2010,11,02,08,48,26.00
2010,11,02,08,49,26.00
2010,11,02,08,50,26.00
2010,11,02,08,51,27.00
2010,11,02,08,52,28.00
2010,11,02,08,53,28.00
2010,11,02,08,54,28.10
2010,11,02,08,55,30.00
2010,11,02,08,56,30.00
2010,11,02,08,57,30.00
2010,11,02,08,58,30.00
2010,11,02,08,59,31.60
2010,11,02,09,00,32.10
2010,11,02,09,01,33.00
2010,11,02,09,02,33.70
2010,11,02,09,03,35.00
2010,11,02,09,04,36.30
2010,11,02,09,05,38.60
2010,11,02,09,06,40.00
2010,11,02,09,07,40.50
2010,11,02,09,08,42.00
2010,11,02,09,09,40.90
2010,11,02,09,10,41.40
2010,11,02,09,11,42.00
2010,11,02,09,12,69.90
2010,11,02,09,13,97.40
2010,11,02,09,14,104.40
2010,11,02,09,15,105.00
2010,11,02,09,16,107.90
2010,11,02,09,17,110.80
2010,11,02,09,18,113.20
2010,11,02,09,19,114.60
2010,11,02,09,20,116.90
2010,11,02,09,21,119.20
2010,11,02,09,22,120.70
2010,11,02,09,23,122.80
2010,11,02,09,24,125.30
2010,11,02,09,25,127.30
2010,11,02,09,26,128.90
2010,11,02,09,27,131.30
2010,11,02,09,28,133.60
2010,11,02,09,29,133.60
2010,11,02,09,30,125.30
2010,11,02,09,31,120.40
2010,11,02,09,32,134.90
2010,11,02,09,33,141.00
2010,11,02,09,34,141.80
2010,11,02,09,35,143.90
2010,11,02,09,36,144.40
2010,11,02,09,37,146.70
2010,11,02,09,38,148.50
2010,11,02,09,39,149.00
2010,11,02,09,40,150.60
2010,11,02,09,41,153.10
2010,11,02,09,42,156.00
2010,11,02,09,43,156.70
2010,11,02,09,44,160.10
2010,11,02,09,45,162.00
2010,11,02,09,46,162.80
2010,11,02,09,47,165.20
2010,11,02,09,48,167.50
2010,11,02,09,49,169.00
2010,11,02,09,50,170.10
2010,11,02,09,51,171.70
2010,11,02,09,52,173.70
2010,11,02,09,53,176.20
2010,11,02,09,54,178.30
2010,11,02,09,55,179.00
2010,11,02,09,56,178.40
2010,11,02,09,57,161.90
2010,11,02,09,58,153.30
2010,11,02,09,59,176.10
2010,11,02,10,00,186.70
2010,11,02,10,01,175.80
2010,11,02,10,02,187.20
2010,11,02,10,03,204.90
2010,11,02,10,04,204.30
2010,11,02,10,05,203.20
2010,11,02,10,06,220.30
2010,11,02,10,07,221.90
2010,11,02,10,08,224.20
2010,11,02,10,09,221.30
2010,11,02,10,10,224.50
2010,11,02,10,11,227.00
2010,11,02,10,12,227.60
2010,11,02,10,13,230.40
2010,11,02,10,14,234.50
2010,11,02,10,15,192.60
2010,11,02,10,16,194.50
2010,11,02,10,17,193.10
2010,11,02,10,18,162.60
2010,11,02,10,19,161.30
2010,11,02,10,20,212.50
2010,11,02,10,21,216.90
2010,11,02,10,22,217.40
2010,11,02,10,23,219.80
2010,11,02,10,24,244.40
2010,11,02,10,25,253.30
2010,11,02,10,26,261.60
2010,11,02,10,27,254.40
2010,11,02,10,28,261.40
2010,11,02,10,29,262.00
2010,11,02,10,30,262.00
2010,11,02,10,31,262.00
2010,11,02,10,32,260.60
2010,11,02,10,33,263.40
2010,11,02,10,34,265.10
2010,11,02,10,35,266.50
2010,11,02,10,36,264.60
2010,11,02,10,37,262.80
2010,11,02,10,38,262.00
2010,11,02,10,39,183.30
2010,11,02,10,40,181.80
2010,11,02,10,41,207.50
2010,11,02,10,42,261.80
2010,11,02,10,43,289.10
2010,11,02,10,44,281.10
2010,11,02,10,45,260.20
2010,11,02,10,46,294.50
2010,11,02,10,47,297.60
2010,11,02,10,48,300.40
2010,11,02,10,49,288.70
2010,11,02,10,50,259.40
2010,11,02,10,51,281.40
2010,11,02,10,52,300.70
2010,11,02,10,53,299.00
2010,11,02,10,54,298.10
2010,11,02,10,55,295.10
2010,11,02,10,56,292.40
2010,11,02,10,57,288.30
2010,11,02,10,58,290.40
2010,11,02,10,59,292.00
2010,11,02,11,00,293.10
2010,11,02,11,01,294.00
2010,11,02,11,02,294.80
2010,11,02,11,03,295.20
2010,11,02,11,04,297.40
2010,11,02,11,05,299.70
2010,11,02,11,06,301.50
2010,11,02,11,07,301.30
2010,11,02,11,08,301.80
2010,11,02,11,09,304.00
2010,11,02,11,10,304.50
2010,11,02,11,11,306.00
2010,11,02,11,12,307.10
2010,11,02,11,13,308.60
2010,11,02,11,14,310.70
2010,11,02,11,15,311.40
2010,11,02,11,16,315.20
2010,11,02,11,17,316.80
2010,11,02,11,18,318.00
2010,11,02,11,19,318.00
2010,11,02,11,20,319.70
2010,11,02,11,21,322.00
2010,11,02,11,22,322.30
2010,11,02,11,23,323.00
2010,11,02,11,24,323.00
2010,11,02,11,25,323.00
2010,11,02,11,26,324.80
2010,11,02,11,27,325.00
2010,11,02,11,28,325.60
2010,11,02,11,29,327.00
2010,11,02,11,30,328.30
2010,11,02,11,31,329.00
2010,11,02,11,32,329.90
2010,11,02,11,33,330.00
2010,11,02,11,34,330.00
2010,11,02,11,35,330.90
2010,11,02,11,36,333.30
2010,11,02,11,37,335.60
2010,11,02,11,38,336.10
2010,11,02,11,39,338.20
2010,11,02,11,40,339.70
2010,11,02,11,41,341.90
2010,11,02,11,42,344.30
2010,11,02,11,43,345.00
2010,11,02,11,44,345.90
2010,11,02,11,45,346.00
2010,11,02,11,46,346.70
2010,11,02,11,47,346.90
2010,11,02,11,48,346.00
2010,11,02,11,49,347.60
2010,11,02,11,50,349.90
2010,11,02,11,51,350.50
2010,11,02,11,52,352.40
2010,11,02,11,53,353.00
2010,11,02,11,54,353.00
2010,11,02,11,55,353.00
2010,11,02,11,56,353.20
2010,11,02,11,57,355.00
2010,11,02,11,58,355.80
2010,11,02,11,59,357.00
2010,11,02,12,00,358.50
2010,11,02,12,01,359.00
2010,11,02,12,02,360.00
2010,11,02,12,03,360.00
2010,11,02,12,04,360.90
2010,11,02,12,05,362.00
2010,11,02,12,06,363.40
2010,11,02,12,07,364.00
2010,11,02,12,08,364.30
2010,11,02,12,09,366.00
2010,11,02,12,10,366.00
2010,11,02,12,11,366.60
2010,11,02,12,12,368.50
2010,11,02,12,13,367.20
2010,11,02,12,14,367.00
2010,11,02,12,15,367.00
2010,11,02,12,16,367.00
2010,11,02,12,17,367.00
2010,11,02,12,18,368.50
2010,11,02,12,19,369.00
2010,11,02,12,20,369.40
2010,11,02,12,21,371.00
2010,11,02,12,22,370.10
2010,11,02,12,23,370.30
2010,11,02,12,24,371.00
2010,11,02,12,25,371.20
2010,11,02,12,26,372.50
2010,11,02,12,27,371.80
2010,11,02,12,28,373.50
2010,11,02,12,29,375.40
2010,11,02,12,30,376.00
2010,11,02,12,31,374.10
2010,11,02,12,32,373.80
2010,11,02,12,33,373.00
2010,11,02,12,34,373.00
2010,11,02,12,35,371.60
2010,11,02,12,36,373.50
2010,11,02,12,37,374.20
2010,11,02,12,38,376.50
2010,11,02,12,39,378.00
2010,11,02,12,40,379.60
2010,11,02,12,41,381.00
2010,11,02,12,42,380.10
2010,11,02,12,43,377.70
2010,11,02,12,44,375.40
2010,11,02,12,45,373.50
2010,11,02,12,46,373.60
2010,11,02,12,47,375.50
2010,11,02,12,48,376.00
2010,11,02,12,49,376.30
2010,11,02,12,50,378.00
2010,11,02,12,51,378.00
2010,11,02,12,52,378.00
2010,11,02,12,53,376.60
2010,11,02,12,54,376.00
2010,11,02,12,55,378.00
2010,11,02,12,56,378.00
2010,11,02,12,57,378.90
2010,11,02,12,58,378.70
2010,11,02,12,59,378.00
2010,11,02,13,00,377.90
2010,11,02,13,01,376.40
2010,11,02,13,02,378.00
2010,11,02,13,03,378.00
2010,11,02,13,04,378.00
2010,11,02,13,05,376.40
2010,11,02,13,06,377.80
2010,11,02,13,07,376.00
2010,11,02,13,08,375.30
2010,11,02,13,09,375.10
2010,11,02,13,10,376.00
2010,11,02,13,11,374.40
2010,11,02,13,12,375.60
2010,11,02,13,13,374.00
2010,11,02,13,14,374.00
2010,11,02,13,15,375.20
2010,11,02,13,16,376.00
2010,11,02,13,17,376.00
2010,11,02,13,18,374.00
2010,11,02,13,19,373.70
2010,11,02,13,20,373.40
2010,11,02,13,21,375.20
2010,11,02,13,22,376.00
2010,11,02,13,23,376.00
2010,11,02,13,24,374.00
2010,11,02,13,25,372.50
2010,11,02,13,26,371.80
2010,11,02,13,27,373.00
2010,11,02,13,28,373.00
2010,11,02,13,29,373.00
2010,11,02,13,30,373.80
2010,11,02,13,31,373.00
2010,11,02,13,32,373.00
2010,11,02,13,33,371.70
2010,11,02,13,34,371.00
2010,11,02,13,35,371.00
2010,11,02,13,36,370.60
2010,11,02,13,37,369.00
2010,11,02,13,38,369.00
2010,11,02,13,39,369.00
2010,11,02,13,40,369.00
2010,11,02,13,41,367.10
2010,11,02,13,42,366.00
2010,11,02,13,43,365.30
2010,11,02,13,44,364.90
2010,11,02,13,45,364.80
2010,11,02,13,46,364.00
2010,11,02,13,47,364.00
2010,11,02,13,48,364.00
2010,11,02,13,49,363.30
2010,11,02,13,50,362.00
2010,11,02,13,51,360.60
2010,11,02,13,52,359.20
2010,11,02,13,53,358.60
2010,11,02,13,54,354.60
2010,11,02,13,55,353.00
2010,11,02,13,56,354.00
2010,11,02,13,57,353.60
2010,11,02,13,58,353.00
2010,11,02,13,59,353.00
2010,11,02,14,00,352.70
2010,11,02,14,01,351.20
2010,11,02,14,02,350.00
2010,11,02,14,03,350.00
2010,11,02,14,04,348.40
2010,11,02,14,05,346.00
2010,11,02,14,06,346.00
2010,11,02,14,07,345.60
2010,11,02,14,08,342.70
2010,11,02,14,09,338.90
2010,11,02,14,10,342.50
2010,11,02,14,11,339.00
2010,11,02,14,12,339.00
2010,11,02,14,13,338.50
2010,11,02,14,14,338.60
2010,11,02,14,15,338.20
2010,11,02,14,16,332.70
2010,11,02,14,17,334.00
2010,11,02,14,18,333.40
2010,11,02,14,19,329.60
2010,11,02,14,20,328.20
2010,11,02,14,21,329.80
2010,11,02,14,22,328.90
2010,11,02,14,23,326.60
2010,11,02,14,24,324.30
2010,11,02,14,25,323.90
2010,11,02,14,26,323.70
2010,11,02,14,27,322.20
2010,11,02,14,28,320.00
2010,11,02,14,29,318.00
2010,11,02,14,30,318.00
2010,11,02,14,31,318.00
2010,11,02,14,32,316.60
2010,11,02,14,33,315.20
2010,11,02,14,34,315.00
2010,11,02,14,35,313.40
2010,11,02,14,36,294.30
2010,11,02,14,37,290.10
2010,11,02,14,38,308.30
2010,11,02,14,39,306.30
2010,11,02,14,40,302.00
2010,11,02,14,41,301.70
2010,11,02,14,42,301.00
2010,11,02,14,43,301.60
2010,11,02,14,44,301.30
2010,11,02,14,45,299.20
2010,11,02,14,46,299.00
2010,11,02,14,47,299.00
2010,11,02,14,48,299.00
2010,11,02,14,49,297.80
2010,11,02,14,50,295.40
2010,11,02,14,51,292.30
2010,11,02,14,52,291.70
2010,11,02,14,53,289.40
2010,11,02,14,54,287.50
2010,11,02,14,55,285.80
2010,11,02,14,56,285.00
2010,11,02,14,57,281.20
2010,11,02,14,58,280.50
2010,11,02,14,59,278.30
2010,11,02,15,00,279.90
2010,11,02,15,01,277.80
2010,11,02,15,02,276.00
2010,11,02,15,03,273.90
2010,11,02,15,04,270.60
2010,11,02,15,05,268.30
2010,11,02,15,06,265.90
2010,11,02,15,07,265.00
2010,11,02,15,08,262.60
2010,11,02,15,09,261.90
2010,11,02,15,10,260.00
2010,11,02,15,11,259.30
2010,11,02,15,12,257.50
2010,11,02,15,13,257.00
2010,11,02,15,14,255.40
2010,11,02,15,15,252.70
2010,11,02,15,16,251.30
2010,11,02,15,17,255.00
2010,11,02,15,18,251.50
2010,11,02,15,19,250.10
2010,11,02,15,20,251.00
2010,11,02,15,21,250.70
2010,11,02,15,22,248.50
2010,11,02,15,23,249.20
2010,11,02,15,24,246.80
2010,11,02,15,25,244.50
2010,11,02,15,26,241.50
2010,11,02,15,27,230.90
2010,11,02,15,28,190.10
2010,11,02,15,29,198.90
2010,11,02,15,30,197.70
2010,11,02,15,31,228.20
2010,11,02,15,32,230.00
2010,11,02,15,33,229.60
2010,11,02,15,34,226.40
2010,11,02,15,35,224.10
2010,11,02,15,36,219.80
2010,11,02,15,37,219.60
2010,11,02,15,38,216.30
2010,11,02,15,39,212.60
2010,11,02,15,40,209.50
2010,11,02,15,41,207.00
2010,11,02,15,42,207.00
2010,11,02,15,43,207.00
2010,11,02,15,44,205.90
2010,11,02,15,45,203.60
2010,11,02,15,46,201.30
2010,11,02,15,47,199.50
2010,11,02,15,48,199.00
2010,11,02,15,49,195.80
2010,11,02,15,50,173.20
2010,11,02,15,51,115.40
2010,11,02,15,52,125.90
2010,11,02,15,53,159.10
2010,11,02,15,54,175.80
2010,11,02,15,55,173.10
2010,11,02,15,56,176.30
2010,11,02,15,57,174.50
2010,11,02,15,58,142.50
2010,11,02,15,59,85.80
2010,11,02,16,00,57.80
2010,11,02,16,01,51.50
2010,11,02,16,02,47.20
2010,11,02,16,03,46.70
2010,11,02,16,04,46.40
2010,11,02,16,05,47.00
2010,11,02,16,06,47.00
2010,11,02,16,07,46.20
2010,11,02,16,08,46.00
2010,11,02,16,09,46.00
2010,11,02,16,10,46.00
2010,11,02,16,11,46.00
2010,11,02,16,12,46.70
2010,11,02,16,13,48.80
2010,11,02,16,14,46.50
2010,11,02,16,15,44.00
2010,11,02,16,16,44.00
2010,11,02,16,17,45.90
2010,11,02,16,18,55.10
2010,11,02,16,19,57.50
2010,11,02,16,20,48.40
2010,11,02,16,21,46.00
2010,11,02,16,22,45.10
2010,11,02,16,23,42.70
2010,11,02,16,24,42.00
2010,11,02,16,25,42.00
2010,11,02,16,26,42.00
2010,11,02,16,27,42.00
2010,11,02,16,28,42.00
2010,11,02,16,29,42.00
2010,11,02,16,30,40.40
2010,11,02,16,31,40.00
2010,11,02,16,32,40.80
2010,11,02,16,33,45.80
2010,11,02,16,34,47.90
2010,11,02,16,35,43.60
2010,11,02,16,36,39.60
2010,11,02,16,37,39.00
2010,11,02,16,38,39.00
2010,11,02,16,39,39.00
2010,11,02,16,40,39.00
2010,11,02,16,41,37.60
2010,11,02,16,42,37.00
2010,11,02,16,43,37.00
2010,11,02,16,44,37.00
2010,11,02,16,45,37.00
2010,11,02,16,46,38.20
2010,11,02,16,47,39.00
2010,11,02,16,48,35.60
2010,11,02,16,49,34.70
2010,11,02,16,50,33.00
2010,11,02,16,51,33.00
2010,11,02,16,52,33.00
2010,11,02,16,53,33.00
2010,11,02,16,54,33.00
2010,11,02,16,55,33.00
2010,11,02,16,56,33.00
2010,11,02,16,57,33.00
2010,11,02,16,58,32.40
2010,11,02,16,59,32.00
2010,11,02,17,00,32.00
2010,11,02,17,01,32.00
2010,11,02,17,02,32.40
2010,11,02,17,03,33.00
2010,11,02,17,04,33.00
2010,11,02,17,05,33.00
2010,11,02,17,06,33.00
2010,11,02,17,07,33.00
2010,11,02,17,08,33.00
2010,11,02,17,09,33.00
2010,11,02,17,10,33.00
2010,11,02,17,11,33.00
2010,11,02,17,12,33.00
2010,11,02,17,13,32.80
2010,11,02,17,14,32.00
2010,11,02,17,15,32.00
2010,11,02,17,16,32.00
2010,11,02,17,17,32.00
2010,11,02,17,18,32.00
2010,11,02,17,19,32.00
2010,11,02,17,20,31.20
2010,11,02,17,21,30.00
2010,11,02,17,22,30.00
2010,11,02,17,23,30.00